User: anonymous   Login
Location: Norwich
(52.6280°N, 1.3030°E)
Time: 12:49:56
(UTC+01:00)
Language:

APEX - Orbit

View from above orbital plane
View from above orbital plane
View from above satellite
View from above satellite

Ground track
Ground track

The orbit data is extracted from the following two-line orbital elements,

1 23191U 94046A   16144.16826445  .00015210  00000-0  53753-3 0  9996
2 23191  69.9277  38.5498 0629355  65.5533 300.9903 14.31146013 60613
Epoch (UTC): 23 May 2016 04:02:18
Eccentricity: 0.0629355
inclination: 69.9277°
perigee height: 337 km
apogee height: 1239 km
right ascension of ascending node: 38.5498°
argument of perigee: 65.5533°
revolutions per day: 14.31146013
mean anomaly at epoch: 300.9903°
orbit number at epoch: 6061

The dashed part of the orbit path shows where the satellite is in the earth's shadow,  

DLR